Regional Weather Roundup
Issued by NWS

Home | Current Version | Previous Version | Graphics & Text | Print | Product List | Glossary On
Versions: 1 2 3 4 5 6 7 8 9 10 11 12 13 14 15 16 17 18 19 20 21 22 23 24 25 26 27 28 29 30 31 32 33 34 35 36 37 38 39 40 41 42 43 44 45 46 47 48 49 50
000
ASUS43 KMPX 202110
RWRMN
WEATHER ROUNDUP FOR MINNESOTA
NATIONAL WEATHER SERVICE TWIN CITIES/CHANHASSEN MN
300 PM CST SAT JAN 20 2018


NOTE: "FAIR" INDICATES FEW OR NO CLOUDS BELOW 12,000 FEET WITH NO
SIGNIFICANT WEATHER AND/OR OBSTRUCTIONS TO VISIBILITY. N/A MEANS
CURRENT SKY AND/OR WEATHER CONDITIONS ARE NOT AVAILABLE.

MNZ060>063-068>070-202200-
   Twin Cities Metro

CITY           SKY/WX    TMP DP  RH WIND       PRES   REMARKS
TWIN CITIES    PTSUNNY   41  33  73 S3        29.88R
ST PAUL        CLOUDY    40  33  76 CALM      29.89R
CRYSTAL        CLOUDY    41  30  65 SW5       29.87R
BLAINE         PTSUNNY   43  34  70 SW5       29.87R
LAKEVILLE        N/A     39  32  75 CALM      29.88R
EDEN PRAIRIE   CLOUDY    41  32  70 CALM      29.87R
SOUTH ST PAUL  CLOUDY    41  31  69 CALM      29.88R
LAKE ELMO      FAIR      37  32  81 S5        29.89R
$$
MNZ001>005-007-008-013>017-022>024-027-028-202200-
   Northwest Minnesota

CITY           SKY/WX    TMP DP  RH WIND       PRES   REMARKS
BEMIDJI        FAIR      35  27  71 W7        29.80R WCI  30
HALLOCK        FAIR      30  28  93 S5        29.79S WCI  25
ROSEAU         FAIR      34  28  80 SW3       29.78S
WARROAD        FAIR      36  28  75 SW8       29.78R
THIEF RVR FALL FAIR      31  25  78 SW10      29.82R WCI  22
CROOKSTON      FAIR      34  28  80 SW6       29.83R WCI  29
FOSSTON        FAIR      34  27  75 SW10      29.82R WCI  26
DETROIT LAKES  FAIR      36  30  80 W8        29.84R
MOORHEAD       FAIR      37  30  75 W7        29.86R
PARK RAPIDS    FAIR      34  28  79 W5        29.82R WCI  30
MAHNOMEN       FAIR      33  28  85 SW7       29.82S WCI  26
$$
MNZ006-009>011-018-025>026-202200-
   North Central Minnesota

CITY           SKY/WX    TMP DP  RH WIND       PRES   REMARKS
BAUDETTE       FAIR      37  28  70 SW5       29.76F
FLAG ISLAND    FAIR      27  25  93 SE8       29.76S WCI  18
INTL FALLS     CLOUDY    36  27  69 W5        29.78S
WASKISH        FAIR      34  27  75 W5        29.79S WCI  30
BIG FORK       FAIR      39  28  65 CALM      29.79R
LONGVILLE      PTSUNNY   37  27  65 SW3       29.81R
GRAND RAPIDS   CLOUDY    37  28  70 W5        29.82R
CRANE LAKE     FAIR      37  28  70 CALM      29.80S
ORR            FAIR      37  27  65 CALM      29.77R
COOK           PTSUNNY   37  28  70 W3        29.79R
WALKER         FAIR      36  27  69 W10       29.81R
$$
MNZ012-019>021-037-202200-
   Northeast Minnesota

CITY           SKY/WX    TMP DP  RH WIND       PRES   REMARKS
DULUTH         FAIR      41  29  62 W10       29.79R
HIBBING        PTSUNNY   37  27  67 CALM      29.79R
EVELETH        FAIR      35  26  69 CALM      29.81R
DULUTH HARBOR  FAIR      39  32  75 W7        29.83R
TWO HARBORS    FAIR      46  34  61 CALM      29.78R
SILVER BAY     FAIR      45  30  57 CALM      29.78R
GRAND MARAIS     N/A     37  33  85 W10       29.81R
G MARAIS ARPRT FAIR      37  27  65 W3        29.78R
$$
MNZ029>031-032-039>041-046>048-054>057-064-202200-
   West Central Minnesota

CITY           SKY/WX    TMP DP  RH WIND       PRES   REMARKS
FERGUS FALLS   FAIR      36  32  87 W5        29.86R
MORRIS         CLOUDY    45  30  57 W7        29.87R
ALEXANDRIA     FAIR      41  29  62 W9        29.86R
ELBOW LAKE     FAIR      38  31  76 NW7       29.87S HAZE
WADENA         FAIR      37  27  65 W7        29.84R
GLENWOOD       FAIR      39  30  70 W7        29.87R
APPLETON       CLOUDY    45  30  57 W6        29.88R
BENSON         CLOUDY    43  32  65 NW6       29.90R
ORTONVILLE     CLOUDY    45  28  53 SW3       29.88R
MADISON        CLOUDY    48  30  49 NW5       29.88S
WILLMAR        FAIR      39  30  70 W6        29.90R
$$
MNZ033>034-036-042>043-049>051-058-059-202200-
   Central Minnesota

CITY           SKY/WX    TMP DP  RH WIND       PRES   REMARKS
ST CLOUD       CLOUDY    38  31  76 SW7       29.86R
SAUK CENTRE      N/A     39  31  71 W12       29.87R
PAYNESVILLE    CLOUDY    38  32  78 W8        29.87S
AITKIN         FAIR      37  27  65 SW6       29.82R
PINE RIVER     FAIR      36  27  69 W6        29.86R
BRAINERD       CLOUDY    38  29  70 SW8       29.84R
STAPLES        FAIR      37  27  65 W7        29.85R
LONG PRAIRIE   FAIR      39  30  70 S7        29.87R
LITTLE FALLS   FAIR      37  27  65 SW5       29.87R
LITCHFIELD     PTSUNNY   41  32  70 W3        29.88S
BUFFALO        CLOUDY    39  31  75 CALM      29.88S
MAPLE LAKE     CLOUDY    40  33  76 MISG      29.87F
HUTCHINSON     CLOUDY    43  33  69 W6        29.89S
$$
MNZ037-044-045-052-053-202200-
   East Central Minnesota

CITY           SKY/WX    TMP DP  RH WIND       PRES   REMARKS
PRINCETON      CLOUDY    41  30  65 CALM      29.87R
MORA           FAIR      37  30  75 SW8       29.87R
CAMBRIDGE      CLOUDY    41  30  65 SW3       29.87R
RUSH CITY      CLOUDY    38  31  73 SW3       29.87R
MOOSE LAKE     FAIR      43  30  61 SW7       29.81R
HINCKLEY       FAIR      39  32  75 SW7       29.85R
CLOQUET        FAIR      41  27  56 W8        29.80R
MCGREGOR       CLOUDY    41  30  65 W7        29.82R
$$
MNZ071>073-080-081-089-090-097-098-202200-
   Southwest Minnesota

CITY           SKY/WX    TMP DP  RH WIND       PRES   REMARKS
MONTEVIDEO     CLOUDY    45  30  57 NW6       29.88R
GRANITE FALLS  MOSUNNY   49  33  53 NW6       29.89S
CANBY          PTSUNNY   48  27  43 NW7       29.88S
MARSHALL       CLOUDY    47  28  47 N6        29.88S
REDWOOD FALLS  CLOUDY    45  31  58 W6        29.87S
OLIVIA         CLOUDY    43  30  61 W7        29.87S
PIPESTONE      CLOUDY    39  30  70 CALM      29.86S
WINDOM         MOSUNNY   45  25  45 NW3       29.87R
WORTHINGTON    CLOUDY    46  32  58 N6        29.87R
JACKSON        CLOUDY    45  32  61 CALM      29.87R
TRACY          MOSUNNY   47  31  55 CALM      29.87R
SLAYTON        CLOUDY    42  33  69 NW5       29.87R
$$
MNZ065>067-074>077-082>085-091>093-202200-
   South Central Minnesota

CITY           SKY/WX    TMP DP  RH WIND       PRES   REMARKS
MANKATO        FAIR      41  32  70 CALM      29.88F
NEW ULM        PTSUNNY   43  30  61 W5        29.88S
ST JAMES       PTSUNNY   45  34  65 NW3       29.89R
FAIRMONT       CLOUDY    43  35  73 N3        29.88S
GLENCOE        CLOUDY    45  34  65 W7        29.87S
FARIBAULT      FAIR      39  32  75 CALM      29.89R
OWATONNA       FAIR      39  34  81 CALM      29.88S
WASECA         FAIR      37  32  81 CALM      29.89S
ALBERT LEA     FAIR      43  34  70 N3        29.86F
$$
MNZ078>079-086>088-094>096-202200-
   Southeast Minnesota

CITY           SKY/WX    TMP DP  RH WIND       PRES   REMARKS
ROCHESTER      FAIR      40  34  79 CALM      29.87S
RED WING       PTSUNNY   37  28  70 CALM      29.89R
STANTON        FAIR      38  32  78 CALM      29.88S
DODGE CENTER   FAIR      39  34  81 CALM      29.87S
WINONA         FAIR      37  32  81 CALM      29.88S
AUSTIN         FAIR      41  34  75 CALM      29.86F
PRESTON        FAIR      42  32  69 N5        29.87F
$$
ABBREVIATIONS USED IN REMARKS
   TC - TEMPERATURES IN CELSIUS
  WCI - WIND CHILL INDEX
   HX - HEAT INDEX
  VSB - VISIBILITY
$$




USA.gov is the U.S. government's official web portal to all federal, state and local government web resources and services.